Location: Bucquoy
(50.1391°N, 2.7097°E)
Time: 09:04:48
(UTC+00:00)

Cosmos 1459 Rocket - Pass Details

Date: 06 May 2021
Orbit: 936 x 1000 km, 83.0° (Epoch: 21 June)

Event Time Altitude Azimuth Distance (km) Brightness Sun altitude
Rises 01:45:39 0° 351° (N) 3,725 7.9 -18.3°
Reaches altitude 10° 01:48:14 10° 354° (N) 2,765 7.1 -18.1°
Maximum altitude 01:54:34 69° 78° (ENE) 1,049 4.3 -17.5°
Drops below altitude 10° 02:00:45 10° 161° (SSE) 2,705 6.0 -17.0°
Enters shadow 02:01:04 - 162° (SSE) 2,824 6.1 -17.0°
